Erie, CO

6:06 AM MDT on September 26, 2017 (GMT -0600)
Erie Municipal Airport

Weather History for KEIK - March, 2013

Change the Weather History Date:

Saturday, March 2, 2013

  Actual Average (KBJC) Record (KBJC)
Temperature  
Mean Temperature 42 °F -  
Max Temperature 60 °F 44 °F 71 °F (2009)
Min Temperature 23 °F 24 °F -2 °F (2002)
Degree Days  
Heating Degree Days 24    
Moisture  
Dew Point 26 °F    
Average Humidity 63    
Maximum Humidity 94    
Minimum Humidity 19    
Precipitation  
Precipitation 0.00 in - - ()
Sea Level Pressure  
Sea Level Pressure 30.20 in    
Wind  
Wind Speed 1 mph (WSW)    
Max Wind Speed 7 mph    
Max Gust Speed -    
Visibility 10 miles    
Events      
Averages and records for this station are not official NWS values.
T = Trace of Precipitation, MM = Missing Value Source: NWS Daily Summary

Daily Weather History Graph

Daily Weather History Graph

Search for Another Location

Airport or City:

Trip Planner

Search our weather history database for the weather conditions in past years. The results will help you decide how hot, cold, wet, or windy it might be!

Date:

Astronomy

Mar. 02, 2013 Rise Set
Actual Time 6:31 AM MST 5:53 PM MST
Civil Twilight 6:04 AM MST 6:20 PM MST
Nautical Twilight 5:33 AM MST 6:52 PM MST
Astronomical Twilight 5:01 AM MST 7:23 PM MST
Moon 11:35 PM MST (3/2) 9:01 AM MST (3/2)
Length of Visible Light 12h 16m
Length of Day
11h 21m
Waning Gibbous, 73% of the Moon is Illuminated
Mar 2
Waning Gibbous
Mar 4
Last Quarter
Mar 11
New
Mar 19
First Quarter
Mar 27
Full

Hourly Weather History & Observations

Time (MST) Temp. Windchill Dew Point Humidity Pressure Visibility Wind Dir Wind Speed Gust Speed Precip Events Conditions
12:09 AM 29.5 °F - 26.6 °F 89% 30.28 in 10.0 mi Calm Calm - N/A   Clear
12:30 AM 28.8 °F - 25.7 °F 88% 30.28 in 10.0 mi Calm Calm - N/A   Clear
12:48 AM 28.2 °F - 25.0 °F 88% 30.28 in 10.0 mi Calm Calm - N/A   Clear
1:09 AM 28.0 °F - 26.2 °F 93% 30.28 in 10.0 mi Calm Calm - N/A   Clear
1:28 AM 27.9 °F - 25.7 °F 92% 30.28 in 10.0 mi Calm Calm - N/A   Clear
1:49 AM 27.3 °F - 25.3 °F 92% 30.28 in 10.0 mi Calm Calm - N/A   Clear
2:08 AM 26.8 °F - 24.3 °F 90% 30.27 in 10.0 mi Calm Calm - N/A   Clear
2:29 AM 26.4 °F - 24.4 °F 92% 30.27 in 10.0 mi Calm Calm - N/A   Clear
2:49 AM 25.0 °F - 23.4 °F 94% 30.26 in 10.0 mi Calm Calm - N/A   Clear
3:08 AM 25.2 °F - 23.5 °F 94% 30.26 in 10.0 mi Calm Calm - N/A   Clear
3:28 AM 25.5 °F - 23.4 °F 92% 30.26 in 10.0 mi Calm Calm - N/A   Clear
3:48 AM 24.8 °F - 23.0 °F 93% 30.26 in 10.0 mi Calm Calm - N/A   Clear
4:10 AM 24.1 °F - 22.3 °F 93% 30.26 in 10.0 mi Calm Calm - N/A   Clear
4:30 AM 23.7 °F - 22.3 °F 94% 30.26 in 10.0 mi Calm Calm - N/A   Clear
4:49 AM 24.3 °F - 22.8 °F 94% 30.27 in 10.0 mi Calm Calm - N/A   Clear
5:09 AM 23.7 °F - 22.1 °F 94% 30.27 in 10.0 mi Calm Calm - N/A   Clear
5:30 AM 24.3 °F - 22.3 °F 92% 30.26 in 10.0 mi Calm Calm - N/A   Clear
5:48 AM 24.3 °F - 22.5 °F 93% 30.26 in 10.0 mi Calm Calm - N/A   Clear
6:09 AM 25.7 °F - 22.8 °F 89% 30.27 in 10.0 mi Calm Calm - N/A   Clear
6:29 AM 24.6 °F - 21.7 °F 89% 30.27 in 10.0 mi Calm Calm - N/A   Clear
6:48 AM 25.3 °F - 22.1 °F 87% 30.27 in 10.0 mi Calm Calm - N/A   Clear
7:08 AM 24.4 °F - 21.7 °F 89% 30.27 in 10.0 mi Calm Calm - N/A   Clear
7:28 AM 26.2 °F - 24.4 °F 93% 30.27 in 10.0 mi Calm Calm - N/A   Clear
7:47 AM 28.2 °F - 25.5 °F 90% 30.27 in 10.0 mi Calm Calm - N/A   Clear
8:07 AM 30.7 °F - 26.8 °F 85% 30.27 in 10.0 mi Calm Calm - N/A   Clear
8:27 AM 33.6 °F - 28.6 °F 82% 30.27 in 10.0 mi Calm Calm - N/A   Clear
8:48 AM 38.3 °F - 30.4 °F 73% 30.27 in 10.0 mi Calm Calm - N/A   Clear
9:08 AM 44.1 °F - 31.8 °F 62% 30.26 in 10.0 mi Calm Calm - N/A   Clear
9:27 AM 50.0 °F - 27.0 °F 41% 30.26 in 10.0 mi Calm Calm - N/A   Clear
9:47 AM 52.5 °F - 23.9 °F 33% 30.26 in 10.0 mi Calm Calm - N/A   Clear
10:07 AM 54.7 °F - 23.5 °F 30% 30.25 in 10.0 mi Calm Calm - N/A   Clear
10:27 AM 52.3 °F - 31.3 °F 45% 30.25 in 10.0 mi NNW 4.6 mph - N/A   Clear
10:47 AM 55.2 °F - 23.9 °F 30% 30.25 in 10.0 mi SSE 4.6 mph - N/A   Clear
11:06 AM 55.2 °F - 24.4 °F 30% 30.25 in 10.0 mi WNW 3.5 mph - N/A   Clear
11:28 AM 55.2 °F - 27.3 °F 34% 30.24 in 10.0 mi West 3.5 mph - N/A   Clear
11:47 AM 56.3 °F - 29.1 °F 35% 30.23 in 10.0 mi NNW 5.8 mph - N/A   Clear
12:08 PM 56.3 °F - 28.8 °F 35% 30.22 in 10.0 mi Calm Calm - N/A   Clear
12:27 PM 56.7 °F - 27.5 °F 33% 30.21 in 10.0 mi Calm Calm - N/A   Clear
12:48 PM 55.4 °F - 25.5 °F 32% 30.20 in 10.0 mi Calm Calm - N/A   Clear
1:06 PM 57.4 °F - 26.6 °F 31% 30.19 in 10.0 mi Calm Calm - N/A   Clear
1:29 PM 58.5 °F - 25.0 °F 28% 30.17 in 10.0 mi Calm Calm - N/A   Clear
1:46 PM 58.8 °F - 22.6 °F 25% 30.17 in 10.0 mi Calm Calm - N/A   Clear
2:06 PM 59.9 °F - 23.4 °F 25% 30.15 in 10.0 mi NW 3.5 mph - N/A   Clear
2:27 PM 60.1 °F - 19.6 °F 21% 30.15 in 10.0 mi Calm Calm - N/A   Clear
2:46 PM 60.3 °F - 19.4 °F 21% 30.15 in 10.0 mi Calm Calm - N/A   Clear
3:06 PM 60.4 °F - 18.1 °F 19% 30.15 in 10.0 mi Calm Calm - N/A   Clear
3:27 PM 60.8 °F - 19.0 °F 20% 30.15 in 10.0 mi Calm Calm - N/A   Clear
3:48 PM 60.8 °F - 21.9 °F 22% 30.14 in 10.0 mi NW 3.5 mph - N/A   Clear
4:06 PM 58.8 °F - 25.7 °F 28% 30.14 in 10.0 mi WNW 6.9 mph - N/A   Clear
4:27 PM 56.5 °F - 26.6 °F 32% 30.13 in 10.0 mi NNW 5.8 mph - N/A   Clear
4:48 PM 53.1 °F - 26.4 °F 36% 30.13 in 10.0 mi North 4.6 mph - N/A   Clear
5:07 PM 52.7 °F - 28.2 °F 39% 30.14 in 10.0 mi Calm Calm - N/A   Clear
5:27 PM 54.3 °F - 27.3 °F 35% 30.14 in 10.0 mi Calm Calm - N/A   Clear
5:49 PM 48.9 °F - 29.8 °F 48% 30.14 in 10.0 mi West 5.8 mph - N/A   Clear
6:06 PM 46.9 °F - 32.7 °F 58% 30.14 in 10.0 mi Calm Calm - N/A   Clear
6:26 PM 45.5 °F 44.2 °F 33.3 °F 62% 30.14 in 10.0 mi SSW 3.5 mph - N/A   Clear
6:46 PM 43.3 °F - 33.1 °F 67% 30.14 in 10.0 mi Calm Calm - N/A   Clear
7:07 PM 42.3 °F - 33.3 °F 70% 30.14 in 10.0 mi Calm Calm - N/A   Clear
7:29 PM 41.4 °F - 33.1 °F 72% 30.13 in 10.0 mi Calm Calm - N/A   Clear
7:47 PM 38.8 °F 36.5 °F 33.1 °F 80% 30.12 in 10.0 mi SW 3.5 mph - N/A   Clear
8:07 PM 37.8 °F - 33.3 °F 84% 30.12 in 10.0 mi Calm Calm - N/A   Clear
8:28 PM 37.6 °F 35.1 °F 32.7 °F 83% 30.12 in 10.0 mi SW 3.5 mph - N/A   Clear
8:48 PM 37.8 °F - 32.2 °F 80% 30.11 in 10.0 mi Calm Calm - N/A   Clear
9:08 PM 38.5 °F - 32.4 °F 79% 30.11 in 10.0 mi Calm Calm - N/A   Clear
9:28 PM 36.9 °F 33.1 °F 32.0 °F 83% 30.09 in 10.0 mi SSW 4.6 mph - N/A   Clear
9:48 PM 37.8 °F 33.3 °F 31.5 °F 78% 30.09 in 10.0 mi SSW 5.8 mph - N/A   Clear
10:06 PM 41.0 °F 39.0 °F 29.8 °F 64% 30.09 in 10.0 mi South 3.5 mph - N/A   Clear
10:28 PM 40.6 °F - 29.8 °F 65% 30.08 in 10.0 mi Calm Calm - N/A   Clear
10:49 PM 41.0 °F - 28.9 °F 62% 30.07 in 10.0 mi Calm Calm - N/A   Clear
11:07 PM 42.1 °F - 27.9 °F 57% 30.05 in 10.0 mi Calm Calm - N/A   Clear
11:27 PM 42.4 °F 40.7 °F 27.5 °F 56% 30.04 in 10.0 mi South 3.5 mph - N/A   Clear
11:47 PM 42.8 °F 41.1 °F 26.4 °F 52% 30.02 in 10.0 mi SSW 3.5 mph - N/A   Clear